Satellite: NOAA-16
Catalog number: 26536
Epoch time:      11159.50660738
Element set:     326
Inclination:      099.1387 deg
RA of node:       189.8713 deg
Eccentricity:    0.0011311
Arg of perigee:   060.5979 deg
Mean anomaly:     299.6334 deg
Mean motion:   14.12622477 rev/day
Decay rate:        9.4e-07 rev/day^2
Epoch rev:           55213
Checksum:              321

Satellite: NOAA-17
Catalog number: 27453
Epoch time:      11159.39487265
Element set:     315
Inclination:      098.3787 deg
RA of node:       199.5087 deg
Eccentricity:    0.0011919
Arg of perigee:   170.1157 deg
Mean anomaly:     190.0258 deg
Mean motion:   14.24279398 rev/day
Decay rate:        3.2e-07 rev/day^2
Epoch rev:           46540
Checksum:              332

Satellite: NOAA-18
Catalog number: 28654
Epoch time:      11159.38097154
Element set:     795
Inclination:      098.9956 deg
RA of node:       110.5069 deg
Eccentricity:    0.0014999
Arg of perigee:   126.9643 deg
Mean anomaly:     233.2908 deg
Mean motion:   14.11479573 rev/day
Decay rate:      -1.40e-06 rev/day^2
Epoch rev:           31168
Checksum:              344

Satellite: NOAA-19
Catalog number: 33591
Epoch time:      11159.37621903
Element set:     986
Inclination:      098.8260 deg
RA of node:       099.6789 deg
Eccentricity:    0.0014323
Arg of perigee:   005.3229 deg
Mean anomaly:     354.8085 deg
Mean motion:   14.11174119 rev/day
Decay rate:       2.88e-06 rev/day^2
Epoch rev:           12014
Checksum:              316

/EX
SB KEPS @ AMSAT  $ORB11159.M
Orbital Elements  11159.MISC

HR AMSAT ORBITAL ELEMENTS FOR MANNED AND MISCELLANEOUS SATELLITES
FROM WA5QGD FORT WORTH,TX June 8, 2011
Send Subscribe/unsubscribe to KEPS at http://www.amsat.org/mailman/listinfo/kep
BID: ORB11159.M
TO ALL RADIO AMATEURS BT

Satellite: HUBBLE
Catalog number: 20580
Epoch time:      11159.14414120
Element set:     778
Inclination:      028.4698 deg
RA of node:       075.5244 deg
Eccentricity:    0.0002924
Arg of perigee:   024.1008 deg
Mean anomaly:     335.9773 deg
Mean motion:   15.01382238 rev/day
Decay rate:       9.33e-06 rev/day^2
Epoch rev:           95829
Checksum:              294

Satellite: ISS
Catalog number: 25544
Epoch time:      11160.01603044
Element set:     499
Inclination:      051.6450 deg
RA of node:       202.4728 deg
Eccentricity:    0.0001007
Arg of perigee:   306.1549 deg
Mean anomaly:     127.2024 deg
Mean motion:   15.74467854 rev/day
Decay rate:     2.4946e-04 rev/day^2
Epoch rev:           71962
Checksum:              277

Satellite: CO-58
Catalog number: 28895
Epoch time:      11159.15653263
Element set:     893
Inclination:      097.9670 deg
RA of node:       035.8943 deg
Eccentricity:    0.0016685
Arg of perigee:   248.9127 deg
Mean anomaly:     111.0286 deg
Mean motion:   14.60110827 rev/day
Decay rate:       3.50e-06 rev/day^2
Epoch rev:           29892
Checksum:              339

Satellite: FALCON
Catalog number: 30776
Epoch time:      11158.95288657
Element set:    0111
Inclination:      035.4336 deg
RA of node:       043.1273 deg
Eccentricity:    0.0001967
Arg of perigee:   340.8010 deg
Mean anomaly:     019.2629 deg
Mean motion:   15.04651204 rev/day
Decay rate:      2.206e-05 rev/day^2
Epoch rev:           23365
Checksum:              269

Satellite: MAST
Catalog number: 31126
Epoch time:      11159.50090575
Element set:     178
Inclination:      097.8954 deg
RA of node:       187.2181 deg
Eccentricity:    0.0093945
Arg of perigee:   197.1353 deg
Mean anomaly:     162.6673 deg
Mean motion:   14.53754239 rev/day
Decay rate:       3.69e-06 rev/day^2
Epoch rev:           21982
Checksum:              329

Satellite: CAPE1
Catalog number: 31130
Epoch time:      11158.51451029
Element set:    0196
Inclination:      097.8978 deg
RA of node:       183.0697 deg
Eccentricity:    0.0101755
Arg of perigee:   210.8277 deg
Mean anomaly:     148.6942 deg
Mean motion:   14.52397111 rev/day
Decay rate:       2.77e-06 rev/day^2
Epoch rev:           21923
Checksum:              306

Satellite: COMPASS
Catalog number: 32787
Epoch time:      11159.70607319
Element set:       7
Inclination:      097.8478 deg
RA of node:       223.6798 deg
Eccentricity:    0.0015035
Arg of perigee:   200.3845 deg
Mean anomaly:     159.6751 deg
Mean motion:   14.82434289 rev/day
Decay rate:      1.244e-05 rev/day^2
Epoch rev:           16830
Checksum:              316

Satellite: AAUSAT2
Catalog number: 32788
Epoch time:      11158.59101183
Element set:    0997
Inclination:      097.8485 deg
RA of node:       222.8073 deg
Eccentricity:    0.0014639
Arg of perigee:   203.7764 deg
Mean anomaly:     156.2815 deg
Mean motion:   14.82616358 rev/day
Decay rate:      1.121e-05 rev/day^2
Epoch rev:           16815
Checksum:              322

Satellite: DO-64
Catalog number: 32789
Epoch time:      11159.68316192
Element set:      14
Inclination:      097.8571 deg
RA of node:       224.8663 deg
Eccentricity:    0.0014953
Arg of perigee:   198.2568 deg
Mean anomaly:     161.8128 deg
Mean motion:   14.83089546 rev/day
Decay rate:      2.423e-05 rev/day^2
Epoch rev:           16832
Checksum:              341

